Ignacio, CO

11:37 PM MST on February 27, 2017 (GMT -0700)
Durango-La Plata County

Weather History for KDRO - June, 2012

Change the Weather History Date:

Wednesday, June 6, 2012

  Actual Average Record
Temperature  
Mean Temperature 63 °F 59 °F  
Max Temperature 84 °F 79 °F 91 °F (2006)
Min Temperature 41 °F 40 °F 30 °F (1982)
Degree Days  
Heating Degree Days 2 6  
Month to date heating degree days 2 40  
Since 1 June heating degree days 2 40  
Since 1 July heating degree days 6469 7048  
Cooling Degree Days 0 0  
Month to date cooling degree days 4 0  
Year to date cooling degree days 4 1  
Since 1 June cooling degree days 4 0  
Growing Degree Days 14 (Base 50)    
Moisture  
Dew Point 22 °F    
Average Humidity 28    
Maximum Humidity 49    
Minimum Humidity 6    
Precipitation  
Precipitation 0.00 in 0.02 in 0.91 in (1970)
Month to date precipitation T 0.09  
Year to date precipitation 2.68 5.52  
Sea Level Pressure  
Sea Level Pressure 29.78 in    
Wind  
Wind Speed 5 mph (NE)    
Max Wind Speed 18 mph    
Max Gust Speed 25 mph    
Visibility 10 miles    
Events      
T = Trace of Precipitation, MM = Missing Value Source: NWS Daily Summary

Daily Weather History Graph

Daily Weather History Graph

Search for Another Location

Airport or City:

Trip Planner

Search our weather history database for the weather conditions in past years. The results will help you decide how hot, cold, wet, or windy it might be!

Date:

Astronomy

Jun. 06, 2012 Rise Set
Actual Time 5:50 AM MDT 8:28 PM MDT
Civil Twilight 5:20 AM MDT 8:59 PM MDT
Nautical Twilight 4:42 AM MDT 9:37 PM MDT
Astronomical Twilight 3:59 AM MDT 10:20 PM MDT
Moon 10:44 PM MDT (6/6) 8:14 AM MDT (6/6)
Length of Visible Light 15h 39m
Length of Day
14h 37m
Waning Gibbous, 93% of the Moon is Illuminated
Jun 6
Waning Gibbous
Jun 11
Last Quarter
Jun 19
New
Jun 26
First Quarter
Jul 3
Full

Hourly Weather History & Observations

Time (MDT) Temp. Windchill Dew Point Humidity Pressure Visibility Wind Dir Wind Speed Gust Speed Precip Events Conditions
12:53 AM 54.0 °F - 23.0 °F 30% 29.76 in 10.0 mi East 6.9 mph - N/A   Clear
1:53 AM 50.0 °F - 24.1 °F 36% 29.78 in 10.0 mi East 6.9 mph - N/A   Clear
2:53 AM 46.9 °F - 25.0 °F 42% 29.79 in 10.0 mi North 3.5 mph - N/A   Clear
3:53 AM 46.0 °F 44.8 °F 26.1 °F 46% 29.80 in 10.0 mi NNE 3.5 mph - N/A   Clear
4:53 AM 43.0 °F 40.3 °F 25.0 °F 49% 29.83 in 10.0 mi North 4.6 mph - N/A   Clear
5:53 AM 46.0 °F 43.9 °F 27.0 °F 47% 29.83 in 10.0 mi North 4.6 mph - N/A   Clear
6:53 AM 45.0 °F 43.5 °F 26.1 °F 48% 29.86 in 10.0 mi NE 3.5 mph - N/A   Clear
7:53 AM 55.9 °F - 28.0 °F 34% 29.83 in 10.0 mi East 5.8 mph - N/A   Clear
8:53 AM 62.1 °F - 28.9 °F 29% 29.83 in 10.0 mi East 8.1 mph - N/A   Clear
9:53 AM 69.1 °F - 27.0 °F 21% 29.85 in 10.0 mi ENE 6.9 mph - N/A   Clear
10:53 AM 71.1 °F - 25.0 °F 18% 29.81 in 10.0 mi Variable 4.6 mph - N/A   Clear
11:53 AM 75.0 °F - 24.1 °F 15% 29.81 in 10.0 mi Variable 4.6 mph - N/A   Clear
12:53 PM 75.9 °F - 23.0 °F 14% 29.80 in 10.0 mi Variable 4.6 mph - N/A   Clear
1:53 PM 80.1 °F - 23.0 °F 12% 29.79 in 10.0 mi NE 6.9 mph 18.4 mph N/A   Clear
3:53 PM 81.0 °F - 10.0 °F 7% 29.76 in 10.0 mi Variable 4.6 mph 23.0 mph N/A   Clear
4:53 PM 84.0 °F - 10.9 °F 6% 29.76 in 10.0 mi South 11.5 mph 25.3 mph N/A   Clear
5:53 PM 82.0 °F - 10.9 °F 7% 29.74 in 10.0 mi Variable 6.9 mph 18.4 mph N/A   Clear
6:53 PM 82.0 °F - 10.9 °F 7% 29.73 in 10.0 mi West 12.7 mph - N/A   Clear
7:53 PM 79.0 °F - 12.9 °F 8% 29.70 in 10.0 mi WNW 5.8 mph - N/A   Clear
8:53 PM 73.9 °F - 16.0 °F 11% 29.71 in 10.0 mi Calm Calm - N/A   Clear
9:53 PM 64.0 °F - 23.0 °F 21% 29.74 in 10.0 mi North 6.9 mph - N/A   Clear
10:53 PM 59.0 °F - 25.0 °F 27% 29.76 in 10.0 mi Calm Calm - N/A   Clear